,,,PA_Meas_PMT16A,,PR_Meas_QMR101_102,,RH_Meas_QMH101,,SR_Meas_QMS101,,TA_Meas_QMH101,,GenWind,,GenWind,
date,time,status,PA,status,PR,status,RH,status,SR,status,TA,status,DirAvg,status,SpdAvg,
2012-05-20, 00:00:04,VALID,1000.47,VALID,0,VALID,77.6085,VALID,0,VALID,25.0284,VALID,146,VALID,1.82813,
2012-05-20, 00:01:04,VALID,1000.43,VALID,0,VALID,77.6695,VALID,0,VALID,25.0479,VALID,146,VALID,1.30898,
2012-05-20, 00:02:04,VALID,1000.4,VALID,0,VALID,77.6314,VALID,0,VALID,25.0674,VALID,146,VALID,1.99961,
2012-05-20, 00:03:04,VALID,1000.36,VALID,0,VALID,77.8832,VALID,0,VALID,25.0479,VALID,141,VALID,1.28711,
2012-05-20, 00:04:04,VALID,1000.33,VALID,0,VALID,78.0358,VALID,0,VALID,25.0088,VALID,142,VALID,1.54922,
2012-05-20, 00:05:04,VALID,1000.33,VALID,0,VALID,77.9289,VALID,0,VALID,25.0088,VALID,141,VALID,1.95742,
2012-05-20, 00:06:04,VALID,1000.29,VALID,0,VALID,77.9137,VALID,0,VALID,25.0284,VALID,150,VALID,2.01719,
2012-05-20, 00:07:04,VALID,1000.26,VALID,0,VALID,77.7763,VALID,0,VALID,25.0479,VALID,152,VALID,1.6,
2012-05-20, 00:08:04,VALID,1000.27,VALID,0,VALID,77.7077,VALID,0,VALID,25.0479,VALID,152,VALID,1.37656,
2012-05-20, 00:09:04,VALID,1000.24,VALID,0,VALID,77.8526,VALID,0,VALID,25.0479,VALID,148,VALID,1.22852,
2012-05-20, 00:10:04,VALID,1000.21,VALID,0,VALID,77.6924,VALID,0,VALID,25.0479,VALID,135,VALID,1.24453,
2012-05-20, 00:11:04,VALID,1000.2,VALID,0,VALID,77.6924,VALID,0,VALID,25.0479,VALID,150,VALID,1.26445,
2012-05-20, 00:12:04,VALID,1000.17,VALID,0,VALID,77.4635,VALID,0,VALID,25.0674,VALID,159,VALID,1.67227,
2012-05-20, 00:13:04,VALID,1000.19,VALID,0,VALID,77.6009,VALID,0,VALID,25.085,VALID,143,VALID,1.19766,
2012-05-20, 00:14:04,VALID,1000.15,VALID,0,VALID,77.3033,VALID,0,VALID,25.0674,VALID,144,VALID,1.58594,
2012-05-20, 00:15:04,VALID,1000.1,VALID,0,VALID,77.4178,VALID,0,VALID,25.1064,VALID,149,VALID,0.899219,
2012-05-20, 00:16:04,VALID,1000.1,VALID,0,VALID,77.8069,VALID,0,VALID,25.0674,VALID,152,VALID,1.075,
2012-05-20, 00:17:04,VALID,1000.07,VALID,0,VALID,77.8374,VALID,0,VALID,25.0284,VALID,143,VALID,0.719922,
2012-05-20, 00:18:04,VALID,1000.04,VALID,0,VALID,78.0205,VALID,0,VALID,24.9893,VALID,128,VALID,0.799609,
2012-05-20, 00:19:04,VALID,1000.05,VALID,0,VALID,78.1197,VALID,0,VALID,24.9503,VALID,155,VALID,0.989844,
2012-05-20, 00:20:04,VALID,1000.08,VALID,0,VALID,78.3409,VALID,0,VALID,24.9308,VALID,141,VALID,1.15977,
2012-05-20, 00:21:04,VALID,1000.02,VALID,0,VALID,78.1655,VALID,0,VALID,24.9308,VALID,164,VALID,1.3082,
2012-05-20, 00:22:04,VALID,1000.03,VALID,0,VALID,78.2723,VALID,0,VALID,24.9112,VALID,136,VALID,0.629687,
2012-05-20, 00:23:04,VALID,1000.05,VALID,0,VALID,78.3333,VALID,0,VALID,24.8917,VALID,158,VALID,1.38398,
2012-05-20, 00:24:04,VALID,1000.04,VALID,0,VALID,78.1273,VALID,0,VALID,24.9308,VALID,153,VALID,1.73672,
2012-05-20, 00:25:04,VALID,1000.03,VALID,0,VALID,78.2112,VALID,0,VALID,24.9503,VALID,151,VALID,1.74336,
2012-05-20, 00:26:04,VALID,1000.02,VALID,0,VALID,78.0281,VALID,0,VALID,24.9893,VALID,150,VALID,1.58086,
2012-05-20, 00:27:04,VALID,999.995,VALID,0,VALID,78.1349,VALID,0,VALID,24.9893,VALID,143,VALID,1.71016,
2012-05-20, 00:28:04,VALID,999.967,VALID,0,VALID,78.1121,VALID,0,VALID,24.9893,VALID,142,VALID,2.03281,
2012-05-20, 00:29:04,VALID,999.956,VALID,0,VALID,78.1349,VALID,0,VALID,24.9503,VALID,140,VALID,2.32734,
2012-05-20, 00:30:04,VALID,999.983,VALID,0,VALID,78.318,VALID,0,VALID,24.9522,VALID,150,VALID,2.2082,
2012-05-20, 00:31:04,VALID,999.953,VALID,0,VALID,78.2189,VALID,0,VALID,24.9308,VALID,147,VALID,2.15977,
2012-05-20, 00:32:04,VALID,999.951,VALID,0,VALID,78.318,VALID,0,VALID,24.9308,VALID,146,VALID,1.75937,
2012-05-20, 00:33:04,VALID,999.928,VALID,0,VALID,78.4401,VALID,0,VALID,24.9112,VALID,141,VALID,1.79844,
2012-05-20, 00:34:04,VALID,999.917,VALID,0,VALID,78.0739,VALID,0,VALID,24.9112,VALID,146,VALID,2.14805,
2012-05-20, 00:35:04,VALID,999.854,VALID,0,VALID,78.0815,VALID,0,VALID,24.9503,VALID,137,VALID,1.3918,
2012-05-20, 00:36:04,VALID,999.886,VALID,0,VALID,78.1883,VALID,0,VALID,24.9308,VALID,142,VALID,1.51094,
2012-05-20, 00:37:04,VALID,999.832,VALID,0,VALID,78.5469,VALID,0,VALID,24.8722,VALID,136,VALID,1.0207,
2012-05-20, 00:38:04,VALID,999.809,VALID,0,VALID,78.7529,VALID,0,VALID,24.835,VALID,124,VALID,1.36289,
2012-05-20, 00:39:04,VALID,999.843,VALID,0,VALID,78.8674,VALID,0,VALID,24.7941,VALID,134,VALID,1.41562,
2012-05-20, 00:40:04,VALID,999.817,VALID,0,VALID,78.9666,VALID,0,VALID,24.7356,VALID,142,VALID,1.25117,
2012-05-20, 00:41:04,VALID,999.758,VALID,0,VALID,79.1955,VALID,0,VALID,24.716,VALID,140,VALID,0.964063,
2012-05-20, 00:42:04,VALID,999.741,VALID,0,VALID,79.4091,VALID,0,VALID,24.6965,VALID,140,VALID,0.8375,
2012-05-20, 00:43:04,VALID,999.739,VALID,0,VALID,79.5083,VALID,0,VALID,24.638,VALID,165,VALID,0.627734,
2012-05-20, 00:44:04,VALID,999.718,VALID,0,VALID,79.5769,VALID,0,VALID,24.6184,VALID,163,VALID,0.440625,
2012-05-20, 00:45:04,VALID,999.658,VALID,0,VALID,79.5922,VALID,0,VALID,24.6184,VALID,159,VALID,0.244531,
2012-05-20, 00:46:04,VALID,999.653,VALID,0,VALID,79.5312,VALID,0,VALID,24.6184,VALID,138,VALID,0.840625,
2012-05-20, 00:47:04,VALID,999.664,VALID,0,VALID,79.5312,VALID,0,VALID,24.6184,VALID,152,VALID,0.699609,
2012-05-20, 00:48:04,VALID,999.632,VALID,0,VALID,79.4243,VALID,0,VALID,24.6184,VALID,153,VALID,0.539063,
2012-05-20, 00:49:04,VALID,999.606,VALID,0,VALID,79.1421,VALID,0,VALID,24.6184,VALID,147,VALID,0.928516,
2012-05-20, 00:50:04,VALID,999.583,VALID,0,VALID,79.0658,VALID,0,VALID,24.677,VALID,142,VALID,0.506641,
2012-05-20, 00:51:04,VALID,999.59,VALID,0,VALID,79.0352,VALID,0,VALID,24.6789,VALID,130,VALID,0.825781,
2012-05-20, 00:52:04,VALID,999.578,VALID,0,VALID,79.0658,VALID,0,VALID,24.6789,VALID,129,VALID,1.34414,
2012-05-20, 00:53:04,VALID,999.521,VALID,0,VALID,79.1344,VALID,0,VALID,24.677,VALID,141,VALID,1.56484,
2012-05-20, 00:54:04,VALID,999.541,VALID,0,VALID,79.1649,VALID,0,VALID,24.6965,VALID,140,VALID,1.60234,
2012-05-20, 00:55:04,VALID,999.539,VALID,0,VALID,79.1573,VALID,0,VALID,24.6965,VALID,138,VALID,1.37891,
2012-05-20, 00:56:04,VALID,999.46,VALID,0,VALID,78.8826,VALID,0,VALID,24.716,VALID,145,VALID,1.46289,
2012-05-20, 00:57:04,VALID,999.457,VALID,0,VALID,78.6309,VALID,0,VALID,24.7551,VALID,132,VALID,1.75586,
2012-05-20, 00:58:04,VALID,999.426,VALID,0,VALID,78.5927,VALID,0,VALID,24.7746,VALID,129,VALID,1.57656,
2012-05-20, 00:59:04,VALID,999.4,VALID,0,VALID,78.6385,VALID,0,VALID,24.7551,VALID,121,VALID,1.61328,
2012-05-20, 01:00:04,VALID,999.401,VALID,0,VALID,78.8979,VALID,0,VALID,24.716,VALID,125,VALID,1.40117,
2012-05-20, 01:01:04,VALID,999.406,VALID,0,VALID,79.02,VALID,0,VALID,24.6965,VALID,144,VALID,1.05781,
2012-05-20, 01:02:04,VALID,999.394,VALID,0,VALID,78.9666,VALID,0,VALID,24.677,VALID,135,VALID,1.28594,
2012-05-20, 01:03:04,VALID,999.385,VALID,0,VALID,79.0658,VALID,0,VALID,24.6984,VALID,134,VALID,0.941016,
2012-05-20, 01:04:04,VALID,999.417,VALID,0,VALID,79.0886,VALID,0,VALID,24.6575,VALID,130,VALID,0.339453,
2012-05-20, 01:05:04,VALID,999.408,VALID,0,VALID,79.3175,VALID,0,VALID,24.6398,VALID,130,VALID,0.0292969,
2012-05-20, 01:06:04,VALID,999.425,VALID,0,VALID,79.4243,VALID,0,VALID,24.5794,VALID,130,VALID,0,
2012-05-20, 01:07:04,VALID,999.392,VALID,0,VALID,79.5235,VALID,0,VALID,24.5599,VALID,130,VALID,0.114844,
2012-05-20, 01:08:04,VALID,999.378,VALID,0,VALID,79.638,VALID,0,VALID,24.5209,VALID,131,VALID,0.226563,
2012-05-20, 01:09:04,VALID,999.377,VALID,0,VALID,79.9737,VALID,0,VALID,24.5209,VALID,131,VALID,0.350391,
2012-05-20, 01:10:04,VALID,999.373,VALID,0,VALID,79.9813,VALID,0,VALID,24.4818,VALID,127,VALID,0.791406,
2012-05-20, 01:11:04,VALID,999.38,VALID,0,VALID,79.8669,VALID,0,VALID,24.4428,VALID,126,VALID,1.23203,
2012-05-20, 01:12:04,VALID,999.376,VALID,0,VALID,79.3938,VALID,0,VALID,24.4623,VALID,142,VALID,1.74922,
2012-05-20, 01:13:04,VALID,999.359,VALID,0,VALID,79.2565,VALID,0,VALID,24.5599,VALID,123,VALID,1.01523,
2012-05-20, 01:14:04,VALID,999.38,VALID,0,VALID,78.7758,VALID,0,VALID,24.6184,VALID,122,VALID,0.735937,
2012-05-20, 01:15:04,VALID,999.368,VALID,0,VALID,78.3486,VALID,0,VALID,24.677,VALID,122,VALID,0.415234,
2012-05-20, 01:16:04,VALID,999.355,VALID,0,VALID,78.2036,VALID,0,VALID,24.7356,VALID,122,VALID,0.187891,
2012-05-20, 01:17:04,VALID,999.332,VALID,0,VALID,78.7072,VALID,0,VALID,24.7374,VALID,122,VALID,0.111719,
2012-05-20, 01:18:04,VALID,999.32,VALID,0,VALID,79.7295,VALID,0,VALID,24.677,VALID,335,VALID,0.736719,
2012-05-20, 01:19:04,VALID,999.338,VALID,0,VALID,79.0505,VALID,0,VALID,24.6166,VALID,199,VALID,1.31328,
2012-05-20, 01:20:04,VALID,999.321,VALID,0,VALID,78.608,VALID,0,VALID,24.6575,VALID,117,VALID,0.729688,
2012-05-20, 01:21:04,VALID,999.32,VALID,0,VALID,78.9818,VALID,0,VALID,24.6361,VALID,68,VALID,1.0207,
2012-05-20, 01:22:04,VALID,999.281,VALID,0,VALID,79.4854,VALID,0,VALID,24.6184,VALID,65,VALID,0.814453,
2012-05-20, 01:23:04,VALID,999.273,VALID,0,VALID,80.0652,VALID,0,VALID,24.5404,VALID,30,VALID,0.848047,
2012-05-20, 01:24:04,VALID,999.245,VALID,0,VALID,80.5078,VALID,0,VALID,24.4623,VALID,24,VALID,0.338281,
2012-05-20, 01:25:04,VALID,999.25,VALID,0,VALID,81.0113,VALID,0,VALID,24.3629,VALID,19,VALID,0.647266,
2012-05-20, 01:26:04,VALID,999.23,VALID,0,VALID,81.6446,VALID,0,VALID,24.2671,VALID,18,VALID,0.591406,
2012-05-20, 01:27:04,VALID,999.195,VALID,0,VALID,82.1557,VALID,0,VALID,24.15,VALID,15,VALID,0.616406,
2012-05-20, 01:28:04,VALID,999.201,VALID,0,VALID,82.5601,VALID,0,VALID,24.072,VALID,15,VALID,0.926953,
2012-05-20, 01:29:04,VALID,999.154,VALID,0,VALID,83.0942,VALID,0,VALID,23.9744,VALID,17,VALID,0.989062,
2012-05-20, 01:30:04,VALID,999.121,VALID,0,VALID,83.6588,VALID,0,VALID,23.9159,VALID,10,VALID,1.34141,
2012-05-20, 01:31:04,VALID,999.093,VALID,0,VALID,84.2615,VALID,0,VALID,23.8378,VALID,20,VALID,1.29453,
2012-05-20, 01:32:04,VALID,999.097,VALID,0,VALID,84.9711,VALID,0,VALID,23.7793,VALID,13,VALID,1.3082,
2012-05-20, 01:33:04,VALID,999.101,VALID,0,VALID,84.7422,VALID,0,VALID,23.7793,VALID,10,VALID,1.14453,
2012-05-20, 01:34:04,VALID,999.076,VALID,0,VALID,84.9787,VALID,0,VALID,23.7793,VALID,16,VALID,1.25078,
2012-05-20, 01:35:04,VALID,999.051,VALID,0,VALID,85.5891,VALID,0,VALID,23.7775,VALID,19,VALID,1.55625,
2012-05-20, 01:36:04,VALID,999.045,VALID,0,VALID,86.8937,VALID,0,VALID,23.7597,VALID,22,VALID,1.43633,
2012-05-20, 01:37:04,VALID,999.064,VALID,0,VALID,87.6796,VALID,0,VALID,23.6817,VALID,23,VALID,1.29336,
2012-05-20, 01:38:04,VALID,999.066,VALID,0,VALID,88.0611,VALID,0,VALID,23.6427,VALID,16,VALID,0.810547,
2012-05-20, 01:39:04,VALID,999.079,VALID,0,VALID,88.29,VALID,0,VALID,23.6232,VALID,14,VALID,0.577734,
2012-05-20, 01:40:04,VALID,999.029,VALID,0,VALID,88.2594,VALID,0,VALID,23.6036,VALID,12,VALID,0.945313,
2012-05-20, 01:41:04,VALID,999.006,VALID,0,VALID,88.0382,VALID,0,VALID,23.6427,VALID,353,VALID,0.526953,
2012-05-20, 01:42:04,VALID,998.993,VALID,0,VALID,88,VALID,0,VALID,23.6232,VALID,28,VALID,0.988281,
2012-05-20, 01:43:04,VALID,998.999,VALID,0,VALID,88,VALID,0,VALID,23.6019,VALID,38,VALID,1.03711,
2012-05-20, 01:44:04,VALID,998.999,VALID,0,VALID,88.7325,VALID,0,VALID,23.5841,VALID,58,VALID,1.40078,
2012-05-20, 01:45:04,VALID,998.962,VALID,0,VALID,89.3352,VALID,0,VALID,23.5238,VALID,46,VALID,1.18906,
2012-05-20, 01:46:04,VALID,998.95,VALID,0,VALID,89.6709,VALID,0,VALID,23.4653,VALID,45,VALID,1.49727,
2012-05-20, 01:47:04,VALID,998.888,VALID,0,VALID,89.8464,VALID,0,VALID,23.4263,VALID,31,VALID,1.1332,
2012-05-20, 01:48:04,VALID,998.937,VALID,0,VALID,89.9456,VALID,0,VALID,23.389,VALID,26,VALID,0.510156,
2012-05-20, 01:49:04,VALID,998.92,VALID,0,VALID,90.1592,VALID,0,VALID,23.311,VALID,17,VALID,0.387109,
2012-05-20, 01:50:04,VALID,998.932,VALID,0,VALID,90.472,VALID,0,VALID,23.2117,VALID,17,VALID,0.0164062,
2012-05-20, 01:51:04,VALID,998.89,VALID,0,VALID,90.8306,VALID,0,VALID,23.1939,VALID,17,VALID,0.303125,
2012-05-20, 01:52:04,VALID,998.869,VALID,0,VALID,91.2197,VALID,0,VALID,23.1336,VALID,67,VALID,1.05703,
2012-05-20, 01:53:04,VALID,998.841,VALID,0,VALID,91.5783,VALID,0,VALID,23.0946,VALID,44,VALID,1.36055,
2012-05-20, 01:54:04,VALID,998.827,VALID,0,VALID,91.7767,VALID,0,VALID,23.0769,VALID,48,VALID,0.798828,
2012-05-20, 01:55:04,VALID,998.814,VALID,0,VALID,91.914,VALID,0,VALID,23.0361,VALID,45,VALID,0.516406,
2012-05-20, 01:56:04,VALID,998.811,VALID,0,VALID,92.1963,VALID,0,VALID,23.0183,VALID,29,VALID,1.12539,
2012-05-20, 01:57:04,VALID,998.835,VALID,0,VALID,92.4023,VALID,0,VALID,23.0183,VALID,33,VALID,0.772656,
2012-05-20, 01:58:04,VALID,998.842,VALID,0,VALID,92.5091,VALID,0,VALID,22.9971,VALID,56,VALID,0.690234,
2012-05-20, 01:59:04,VALID,998.823,VALID,0,VALID,92.4939,VALID,0,VALID,23.0378,VALID,44,VALID,0.563672,
2012-05-20, 02:00:04,VALID,998.786,VALID,0,VALID,92.3718,VALID,0,VALID,23.0361,VALID,1,VALID,0.987109,
2012-05-20, 02:01:04,VALID,998.76,VALID,0,VALID,92.2268,VALID,0,VALID,23.0769,VALID,15,VALID,0.787891,
2012-05-20, 02:02:04,VALID,998.767,VALID,0,VALID,92.12,VALID,0,VALID,23.0769,VALID,17,VALID,0.703516,
2012-05-20, 02:03:04,VALID,998.777,VALID,0,VALID,92.0819,VALID,0,VALID,23.0166,VALID,38,VALID,0.823438,
2012-05-20, 02:04:04,VALID,998.789,VALID,0,VALID,92.1353,VALID,0,VALID,23.0378,VALID,34,VALID,0.746484,
2012-05-20, 02:05:04,VALID,998.824,VALID,0,VALID,92.0666,VALID,0,VALID,22.9988,VALID,34,VALID,0.628125,
2012-05-20, 02:06:04,VALID,998.866,VALID,0,VALID,92.204,VALID,0,VALID,22.9793,VALID,34,VALID,0.488672,
2012-05-20, 02:07:04,VALID,998.877,VALID,0,VALID,92.3108,VALID,0,VALID,22.9598,VALID,72,VALID,0.701953,
2012-05-20, 02:08:04,VALID,998.861,VALID,0,VALID,92.326,VALID,0,VALID,22.9403,VALID,113,VALID,0.969922,
2012-05-20, 02:09:04,VALID,998.812,VALID,0,VALID,92.326,VALID,0,VALID,22.9208,VALID,55,VALID,0.787109,
2012-05-20, 02:10:04,VALID,998.827,VALID,0,VALID,92.3947,VALID,0,VALID,22.9013,VALID,57,VALID,0.749219,
2012-05-20, 02:11:04,VALID,998.823,VALID,0,VALID,92.6312,VALID,0,VALID,22.9013,VALID,77,VALID,0.829297,
2012-05-20, 02:12:04,VALID,998.812,VALID,0,VALID,92.7304,VALID,0,VALID,22.9403,VALID,77,VALID,0.897656,
2012-05-20, 02:13:04,VALID,998.783,VALID,0,VALID,92.6617,VALID,0,VALID,22.9793,VALID,77,VALID,0.725781,
2012-05-20, 02:14:04,VALID,998.771,VALID,0,VALID,92.5626,VALID,0,VALID,22.9971,VALID,77,VALID,0.753125,
2012-05-20, 02:15:04,VALID,998.807,VALID,0,VALID,92.3566,VALID,0,VALID,22.9971,VALID,80,VALID,0.723828,
2012-05-20, 02:16:04,VALID,998.799,VALID,0,VALID,92.2879,VALID,0,VALID,23.0769,VALID,86,VALID,0.723828,
2012-05-20, 02:17:04,VALID,998.81,VALID,0,VALID,92.059,VALID,0,VALID,23.0964,VALID,86,VALID,0.491797,
2012-05-20, 02:18:04,VALID,998.832,VALID,0,VALID,92.0437,VALID,0,VALID,23.0946,VALID,99,VALID,0.747656,
2012-05-20, 02:19:04,VALID,998.823,VALID,0,VALID,92.2879,VALID,0,VALID,23.1549,VALID,106,VALID,0.775,
2012-05-20, 02:20:04,VALID,998.792,VALID,0,VALID,92.3871,VALID,0,VALID,23.1744,VALID,106,VALID,0.930469,
2012-05-20, 02:21:04,VALID,998.769,VALID,0,VALID,92.3566,VALID,0,VALID,23.2134,VALID,106,VALID,1.1082,
2012-05-20, 02:22:04,VALID,998.747,VALID,0,VALID,92.2879,VALID,0,VALID,23.2134,VALID,106,VALID,0.940234,
2012-05-20, 02:23:04,VALID,998.718,VALID,0,VALID,92.0285,VALID,0,VALID,23.1921,VALID,106,VALID,1.12227,
2012-05-20, 02:24:04,VALID,998.708,VALID,0,VALID,92.0437,VALID,0,VALID,23.2134,VALID,106,VALID,0.973047,
2012-05-20, 02:25:04,VALID,998.737,VALID,0,VALID,92.204,VALID,0,VALID,23.2134,VALID,106,VALID,0.821094,
2012-05-20, 02:26:04,VALID,998.724,VALID,0,VALID,92.2497,VALID,0,VALID,23.1939,VALID,97,VALID,0.676562,
2012-05-20, 02:27:04,VALID,998.731,VALID,0,VALID,92.3489,VALID,0,VALID,23.1726,VALID,80,VALID,0.517578,
2012-05-20, 02:28:04,VALID,998.738,VALID,0,VALID,92.2421,VALID,0,VALID,23.1744,VALID,80,VALID,0.291016,
2012-05-20, 02:29:04,VALID,998.72,VALID,0,VALID,92.1734,VALID,0,VALID,23.1549,VALID,80,VALID,0.173828,
2012-05-20, 02:30:04,VALID,998.732,VALID,0,VALID,92.0743,VALID,0,VALID,23.1549,VALID,80,VALID,0.353516,
2012-05-20, 02:31:04,VALID,998.708,VALID,0,VALID,92.2268,VALID,0,VALID,23.1549,VALID,80,VALID,0.452734,
2012-05-20, 02:32:04,VALID,998.663,VALID,0,VALID,92.3489,VALID,0,VALID,23.1549,VALID,80,VALID,0.710156,
2012-05-20, 02:33:04,VALID,998.654,VALID,0,VALID,92.2879,VALID,0,VALID,23.1939,VALID,80,VALID,0.755078,
2012-05-20, 02:34:04,VALID,998.643,VALID,0,VALID,92.1506,VALID,0,VALID,23.1744,VALID,98,VALID,1.03711,
2012-05-20, 02:35:04,VALID,998.612,VALID,0,VALID,92.0209,VALID,0,VALID,23.1549,VALID,83,VALID,1.05547,
2012-05-20, 02:36:04,VALID,998.645,VALID,0,VALID,92.0819,VALID,0,VALID,23.1354,VALID,92,VALID,1.04844,
2012-05-20, 02:37:04,VALID,998.59,VALID,0,VALID,92.2574,VALID,0,VALID,23.0751,VALID,89,VALID,0.947656,
2012-05-20, 02:38:04,VALID,998.623,VALID,0,VALID,92.5091,VALID,0,VALID,23.0769,VALID,81,VALID,0.843359,
2012-05-20, 02:39:04,VALID,998.647,VALID,0,VALID,92.6388,VALID,0,VALID,23.0378,VALID,81,VALID,0.905859,
2012-05-20, 02:40:04,VALID,998.668,VALID,0,VALID,92.677,VALID,0,VALID,23.0378,VALID,71,VALID,0.844141,
2012-05-20, 02:41:04,VALID,998.645,VALID,0,VALID,92.6236,VALID,0,VALID,23.0573,VALID,76,VALID,0.851172,
2012-05-20, 02:42:04,VALID,998.647,VALID,0,VALID,92.5244,VALID,0,VALID,23.0573,VALID,76,VALID,0.623438,
2012-05-20, 02:43:04,VALID,998.65,VALID,0,VALID,92.3489,VALID,0,VALID,23.0556,VALID,68,VALID,0.644922,
2012-05-20, 02:44:04,VALID,998.642,VALID,0,VALID,92.0743,VALID,0,VALID,23.0378,VALID,58,VALID,0.490625,
2012-05-20, 02:45:04,VALID,998.634,VALID,0,VALID,91.9751,VALID,0,VALID,23.0183,VALID,58,VALID,0.560156,
2012-05-20, 02:46:04,VALID,998.645,VALID,0,VALID,91.8301,VALID,0,VALID,22.9988,VALID,42,VALID,1.00078,
2012-05-20, 02:47:04,VALID,998.665,VALID,0,VALID,91.7385,VALID,0,VALID,22.9403,VALID,43,VALID,0.73125,
2012-05-20, 02:48:04,VALID,998.651,VALID,0,VALID,91.9598,VALID,0,VALID,22.9013,VALID,68,VALID,0.690234,
2012-05-20, 02:49:04,VALID,998.653,VALID,0,VALID,92.0285,VALID,0,VALID,22.88,VALID,79,VALID,0.813672,
2012-05-20, 02:50:04,VALID,998.675,VALID,0,VALID,91.9827,VALID,0,VALID,22.9208,VALID,64,VALID,0.710156,
2012-05-20, 02:51:04,VALID,998.648,VALID,0,VALID,91.853,VALID,0,VALID,22.9013,VALID,32,VALID,0.961328,
2012-05-20, 02:52:04,VALID,998.702,VALID,0,VALID,91.9827,VALID,0,VALID,22.8623,VALID,24,VALID,0.85625,
2012-05-20, 02:53:04,VALID,998.689,VALID,0,VALID,92.0285,VALID,0,VALID,22.7842,VALID,21,VALID,0.962891,
2012-05-20, 02:54:04,VALID,998.676,VALID,0,VALID,92.4252,VALID,0,VALID,22.7257,VALID,8,VALID,0.760547,
2012-05-20, 02:55:04,VALID,998.684,VALID,0,VALID,92.8067,VALID,0,VALID,22.6867,VALID,8,VALID,0.546875,
2012-05-20, 02:56:04,VALID,998.675,VALID,0,VALID,93.0966,VALID,0,VALID,22.6672,VALID,8,VALID,0.719141,
2012-05-20, 02:57:04,VALID,998.673,VALID,0,VALID,93.295,VALID,0,VALID,22.6477,VALID,8,VALID,0.558203,
2012-05-20, 02:58:04,VALID,998.694,VALID,0,VALID,93.5086,VALID,0,VALID,22.6477,VALID,8,VALID,0.729297,
2012-05-20, 02:59:04,VALID,998.683,VALID,0,VALID,93.6383,VALID,0,VALID,22.6477,VALID,8,VALID,0.541406,
2012-05-20, 03:00:04,VALID,998.683,VALID,0,VALID,93.7528,VALID,0,VALID,22.6264,VALID,8,VALID,0.595312,
2012-05-20, 03:01:04,VALID,998.73,VALID,0,VALID,93.8214,VALID,0,VALID,22.6672,VALID,8,VALID,0.252734,
2012-05-20, 03:02:04,VALID,998.73,VALID,0,VALID,93.8367,VALID,0,VALID,22.6672,VALID,8,VALID,0.212891,
2012-05-20, 03:03:04,VALID,998.755,VALID,0,VALID,93.7299,VALID,0,VALID,22.6672,VALID,8,VALID,0,
2012-05-20, 03:04:04,VALID,998.744,VALID,0,VALID,93.7299,VALID,0,VALID,22.6867,VALID,8,VALID,0.174609,
2012-05-20, 03:05:04,VALID,998.733,VALID,0,VALID,93.7375,VALID,0,VALID,22.685,VALID,8,VALID,0.351172,
2012-05-20, 03:06:04,VALID,998.731,VALID,0,VALID,93.707,VALID,0,VALID,22.6655,VALID,8,VALID,0.483984,
2012-05-20, 03:07:04,VALID,998.717,VALID,0,VALID,93.7223,VALID,0,VALID,22.685,VALID,8,VALID,0.338672,
2012-05-20, 03:08:04,VALID,998.741,VALID,0,VALID,93.6536,VALID,0,VALID,22.7452,VALID,8,VALID,0.366797,
2012-05-20, 03:09:04,VALID,998.726,VALID,0,VALID,93.4628,VALID,0,VALID,22.7647,VALID,8,VALID,0.285547,
2012-05-20, 03:10:04,VALID,998.748,VALID,0,VALID,93.1653,VALID,0,VALID,22.8037,VALID,8,VALID,0.470703,
2012-05-20, 03:11:04,VALID,998.755,VALID,0,VALID,92.8754,VALID,0,VALID,22.8232,VALID,8,VALID,0.375391,
2012-05-20, 03:12:04,VALID,998.777,VALID,0,VALID,92.6617,VALID,0,VALID,22.8232,VALID,8,VALID,0.484766,
2012-05-20, 03:13:04,VALID,998.783,VALID,0,VALID,92.3794,VALID,0,VALID,22.8623,VALID,15,VALID,0.546484,
2012-05-20, 03:14:04,VALID,998.797,VALID,0,VALID,92.0895,VALID,0,VALID,22.8995,VALID,15,VALID,0.373437,
2012-05-20, 03:15:04,VALID,998.738,VALID,0,VALID,91.6851,VALID,0,VALID,22.9598,VALID,15,VALID,0.687109,
2012-05-20, 03:16:04,VALID,998.751,VALID,0,VALID,91.4028,VALID,0,VALID,22.9581,VALID,15,VALID,0.803516,
2012-05-20, 03:17:04,VALID,998.775,VALID,0,VALID,91.029,VALID,0,VALID,22.9971,VALID,15,VALID,0.819531,
2012-05-20, 03:18:04,VALID,998.793,VALID,0,VALID,91.0519,VALID,0,VALID,23.0378,VALID,15,VALID,1.09961,
2012-05-20, 03:19:04,VALID,998.772,VALID,0,VALID,90.762,VALID,0,VALID,23.0378,VALID,15,VALID,1.3082,
2012-05-20, 03:20:04,VALID,998.736,VALID,0,VALID,90.4644,VALID,0,VALID,22.9793,VALID,19,VALID,1.4957,
2012-05-20, 03:21:04,VALID,998.772,VALID,0,VALID,90.8383,VALID,0,VALID,22.9208,VALID,19,VALID,1.6043,
2012-05-20, 03:22:04,VALID,998.78,VALID,0,VALID,91.2121,VALID,0,VALID,22.9013,VALID,25,VALID,1.46758,
2012-05-20, 03:23:04,VALID,998.808,VALID,0,VALID,91.3418,VALID,0.104696,VALID,22.9013,VALID,22,VALID,1.63711,
2012-05-20, 03:24:04,VALID,998.79,VALID,0,VALID,91.3723,VALID,0,VALID,22.9013,VALID,19,VALID,1.55195,
2012-05-20, 03:25:04,VALID,998.79,VALID,0,VALID,91.6165,VALID,0,VALID,22.8232,VALID,31,VALID,1.48164,
2012-05-20, 03:26:04,VALID,998.789,VALID,0,VALID,91.9903,VALID,0,VALID,22.8037,VALID,42,VALID,1.11719,
2012-05-20, 03:27:04,VALID,998.762,VALID,0,VALID,92.1048,VALID,0,VALID,22.763,VALID,35,VALID,1.25937,
2012-05-20, 03:28:04,VALID,998.755,VALID,0,VALID,92.3184,VALID,0,VALID,22.7435,VALID,39,VALID,1.14023,
2012-05-20, 03:29:04,VALID,998.718,VALID,0,VALID,92.5015,VALID,0,VALID,22.724,VALID,36,VALID,1.34766,
2012-05-20, 03:30:04,VALID,998.774,VALID,0,VALID,92.616,VALID,0,VALID,22.724,VALID,31,VALID,0.932813,
2012-05-20, 03:31:04,VALID,998.778,VALID,0,VALID,92.6007,VALID,0,VALID,22.7045,VALID,31,VALID,0.399609,
2012-05-20, 03:32:04,VALID,998.782,VALID,0,VALID,92.6007,VALID,0,VALID,22.685,VALID,21,VALID,0.462109,
2012-05-20, 03:33:04,VALID,998.793,VALID,0,VALID,92.5473,VALID,0,VALID,22.685,VALID,7,VALID,0.56875,
2012-05-20, 03:34:04,VALID,998.804,VALID,0,VALID,92.471,VALID,0,VALID,22.7062,VALID,7,VALID,0.414844,
2012-05-20, 03:35:04,VALID,998.787,VALID,0,VALID,92.4405,VALID,0,VALID,22.7062,VALID,7,VALID,0.554688,
2012-05-20, 03:36:04,VALID,998.792,VALID,0,VALID,92.4786,VALID,0,VALID,22.724,VALID,33,VALID,0.735937,
2012-05-20, 03:37:04,VALID,998.786,VALID,0,VALID,92.3642,VALID,0,VALID,22.8037,VALID,41,VALID,0.655469,
2012-05-20, 03:38:04,VALID,998.82,VALID,0,VALID,92.1963,VALID,0,VALID,22.8037,VALID,41,VALID,0.711719,
2012-05-20, 03:39:04,VALID,998.82,VALID,0,VALID,92.1048,VALID,0,VALID,22.8427,VALID,41,VALID,0.782422,
2012-05-20, 03:40:04,VALID,998.784,VALID,0,VALID,91.9827,VALID,0,VALID,22.802,VALID,41,VALID,0.779297,
2012-05-20, 03:41:04,VALID,998.78,VALID,0,VALID,91.9369,VALID,0,VALID,22.8232,VALID,41,VALID,0.557422,
2012-05-20, 03:42:04,VALID,998.773,VALID,0,VALID,91.792,VALID,0,VALID,22.8232,VALID,41,VALID,0.627734,
2012-05-20, 03:43:04,VALID,998.773,VALID,0,VALID,91.8072,VALID,0,VALID,22.763,VALID,41,VALID,0.764063,
2012-05-20, 03:44:04,VALID,998.767,VALID,0,VALID,91.8606,VALID,0,VALID,22.7647,VALID,41,VALID,0.782422,
2012-05-20, 03:45:04,VALID,998.734,VALID,0,VALID,91.8835,VALID,0,VALID,22.7452,VALID,40,VALID,0.541016,
2012-05-20, 03:46:04,VALID,998.744,VALID,0,VALID,91.9598,VALID,0,VALID,22.7045,VALID,38,VALID,0.334375,
2012-05-20, 03:47:04,VALID,998.764,VALID,0,VALID,91.9598,VALID,0.104696,VALID,22.7452,VALID,38,VALID,0.257813,